Winfield, KS

10:36 PM CDT on August 31, 2016 (GMT -0500)
Strother

Weather History for KWLD - September, 2012

Change the Weather History Date:

Thursday, September 13, 2012

  Actual Average Record
Temperature  
Mean Temperature 65 °F -  
Max Temperature 73 °F 82 °F 97 °F (2005)
Min Temperature 57 °F 60 °F 39 °F (2014)
Growing Degree Days 15 (Base 50)    
Moisture  
Dew Point 56 °F    
Average Humidity 88    
Maximum Humidity 100    
Minimum Humidity 57    
Precipitation  
Precipitation 0.69 in - - ()
Sea Level Pressure  
Sea Level Pressure 30.23 in    
Wind  
Wind Speed 12 mph (NNE)    
Max Wind Speed 22 mph    
Max Gust Speed 29 mph    
Visibility 8 miles    
Events Rain    
Averages and records for this station are not official NWS values.
T = Trace of Precipitation, MM = Missing Value Source: NWS Daily Summary

Daily Weather History Graph

Daily Weather History Graph

Search for Another Location

Airport or City:

Trip Planner

Search our weather history database for the weather conditions in past years. The results will help you decide how hot, cold, wet, or windy it might be!

Date:

Astronomy

Sep. 13, 2012 Rise Set
Actual Time 7:09 AM CDT 7:38 PM CDT
Civil Twilight 6:42 AM CDT 8:04 PM CDT
Nautical Twilight 6:12 AM CDT 8:34 PM CDT
Astronomical Twilight 5:40 AM CDT 9:06 PM CDT
Moon 4:32 AM CDT (9/13) 5:59 PM CDT (9/13)
Length of Visible Light 13h 21m
Length of Day
12h 29m
Waning Crescent, 7% of the Moon is Illuminated
Sep 13
Waning Crescent
Sep 15
New
Sep 22
First Quarter
Sep 29
Full
Oct 8
Last Quarter

Hourly Weather History & Observations

Time (CDT) Temp. Dew Point Humidity Pressure Visibility Wind Dir Wind Speed Gust Speed Precip Events Conditions
12:54 AM 73.0 °F 57.0 °F 57% 30.04 in 10.0 mi WNW 4.6 mph - N/A   Partly Cloudy
1:54 AM 69.1 °F 61.0 °F 75% 30.05 in 10.0 mi NW 4.6 mph - N/A   Clear
2:54 AM 66.9 °F 61.0 °F 81% 30.06 in 10.0 mi North 10.4 mph - N/A   Clear
3:54 AM 62.1 °F 57.0 °F 84% 30.09 in 10.0 mi North 15.0 mph 21.9 mph N/A   Scattered Clouds
4:54 AM 60.1 °F 55.0 °F 83% 30.12 in 10.0 mi North 13.8 mph - N/A   Overcast
5:54 AM 60.1 °F 55.0 °F 83% 30.13 in 10.0 mi North 15.0 mph - N/A   Mostly Cloudy
6:29 AM 60.8 °F 55.4 °F 82% 30.17 in 10.0 mi North 15.0 mph 21.9 mph N/A   Mostly Cloudy
6:54 AM 60.1 °F 55.0 °F 83% 30.16 in 10.0 mi North 13.8 mph - N/A   Overcast
7:15 AM 60.8 °F 55.4 °F 82% 30.19 in 10.0 mi NNE 15.0 mph 21.9 mph N/A   Mostly Cloudy
7:49 AM 60.8 °F 53.6 °F 77% 30.20 in 10.0 mi NNE 17.3 mph 26.5 mph N/A   Overcast
7:54 AM 60.1 °F 54.0 °F 80% 30.18 in 10.0 mi NNE 20.7 mph 27.6 mph N/A   Overcast
8:54 AM 62.1 °F 54.0 °F 75% 30.19 in 9.0 mi NNE 13.8 mph - N/A   Overcast
9:54 AM 64.0 °F 54.0 °F 70% 30.21 in 9.0 mi NNE 18.4 mph - N/A   Mostly Cloudy
10:10 AM 64.4 °F 55.4 °F 73% 30.24 in 8.0 mi NNE 21.9 mph 26.5 mph N/A   Mostly Cloudy
10:54 AM 64.0 °F 55.9 °F 75% 30.22 in 10.0 mi North 19.6 mph - N/A   Overcast
11:54 AM 62.1 °F 55.0 °F 78% 30.25 in 10.0 mi NNE 17.3 mph 24.2 mph N/A   Overcast
12:54 PM 59.0 °F 55.9 °F 90% 30.26 in 7.0 mi NNE 11.5 mph 19.6 mph 0.02 in Rain Light Rain
1:54 PM 60.1 °F 57.0 °F 90% 30.24 in 10.0 mi NNE 13.8 mph 23.0 mph 0.02 in Rain Light Rain
2:19 PM 59.0 °F 57.2 °F 94% 30.30 in 10.0 mi North 5.8 mph - 0.01 in   Overcast
2:36 PM 57.2 °F 55.4 °F 94% 30.29 in 1.8 mi North 9.2 mph - 0.11 in Rain Heavy Rain
2:54 PM 57.9 °F 57.0 °F 97% 30.28 in 2.0 mi North 9.2 mph 20.7 mph 0.24 in Rain Heavy Rain
3:02 PM 57.2 °F 55.4 °F 94% 30.30 in 3.0 mi North 12.7 mph - 0.03 in Rain Heavy Rain
3:36 PM 57.2 °F 57.2 °F 100% 30.31 in 2.5 mi North 8.1 mph - 0.17 in Rain Heavy Rain
3:51 PM 57.2 °F 57.2 °F 100% 30.29 in 4.0 mi NNE 15.0 mph - 0.20 in Rain Rain
3:54 PM 57.9 °F 57.0 °F 97% 30.27 in 4.0 mi North 17.3 mph 21.9 mph 0.20 in Rain Rain
3:58 PM 57.2 °F 57.2 °F 100% 30.28 in 5.0 mi North 17.3 mph - 0.00 in Rain Light Rain
4:27 PM 59.0 °F 57.2 °F 94% 30.27 in 10.0 mi NNE 13.8 mph 23.0 mph 0.01 in   Overcast
4:54 PM 59.0 °F 57.9 °F 96% 30.26 in 10.0 mi NNE 20.7 mph 28.8 mph 0.01 in   Overcast
5:01 PM 59.0 °F 57.2 °F 94% 30.27 in 10.0 mi NNE 16.1 mph 28.8 mph N/A   Overcast
5:54 PM 57.9 °F 55.9 °F 93% 30.27 in 10.0 mi NNE 17.3 mph 26.5 mph N/A   Overcast
6:54 PM 57.9 °F 55.9 °F 93% 30.28 in 9.0 mi NNE 16.1 mph 25.3 mph 0.00 in Rain Light Rain
7:54 PM 57.0 °F 55.9 °F 96% 30.28 in 8.0 mi NNE 13.8 mph 21.9 mph 0.04 in Rain Light Rain
8:54 PM 57.0 °F 55.9 °F 96% 30.30 in 8.0 mi NNE 12.7 mph - 0.03 in Rain Light Rain
9:54 PM 57.0 °F 57.0 °F 100% 30.31 in 8.0 mi NNE 13.8 mph - 0.05 in Rain Light Rain
10:01 PM 57.2 °F 57.2 °F 100% 30.32 in 9.0 mi NNE 11.5 mph - 0.00 in Rain Light Rain
10:52 PM 57.2 °F 55.4 °F 94% 30.32 in 9.0 mi NNE 15.0 mph - 0.04 in Rain Light Rain
10:54 PM 57.0 °F 55.9 °F 96% 30.31 in 9.0 mi NNE 15.0 mph - 0.04 in Rain Light Rain
11:16 PM 57.2 °F 55.4 °F 94% 30.33 in 8.0 mi NNE 12.7 mph 23.0 mph 0.02 in Rain Rain
11:54 PM 57.0 °F 55.9 °F 96% 30.32 in 10.0 mi NNE 11.5 mph 20.7 mph 0.04 in Rain Light Rain